Terminal Aerodrome Forecast
Issued by NWS

Home | Current Version | Previous Version | Text Only | Print | Product List | Glossary On
Versions: 1 2 3 4 5 6 7 8 9 10 11 12 13 14 15 16 17
000
FTUS41 KCLE 172215 AAA
TAFFDY
TAF AMD
KFDY 172215Z 1722/1818 19008KT P6SM SCT050 OVC100
      TEMPO 1722/1724 -RA BKN050
     FM180500 20008KT 5SM BR SCT012 OVC020
     FM181200 22008KT 2SM BR OVC006=

USA.gov is the U.S. government's official web portal to all federal, state and local government web resources and services.